TimeCDT,TemperatureF,Dew PointF,Humidity,Sea Level PressureIn,VisibilityMPH,Wind Direction,Wind SpeedMPH,Gust SpeedMPH,PrecipitationIn,Events,Conditions,WindDirDegrees,DateUTC
12:17 AM,42.8,42.8,100,30.21,10.0,Calm,Calm,-,N/A,,Clear,0,2013-09-05 05:17:00
12:36 AM,42.8,41.0,93,30.22,10.0,Calm,Calm,-,N/A,,Clear,0,2013-09-05 05:36:00
12:56 AM,41.0,39.2,93,30.22,10.0,Calm,Calm,-,N/A,,Clear,0,2013-09-05 05:56:00
1:17 AM,41.0,39.2,93,30.22,10.0,Calm,Calm,-,N/A,,Clear,0,2013-09-05 06:17:00
1:36 AM,41.0,39.2,93,30.23,10.0,Calm,Calm,-,N/A,,Clear,0,2013-09-05 06:36:00
1:57 AM,41.0,39.2,93,30.23,10.0,Calm,Calm,-,N/A,,Clear,0,2013-09-05 06:57:00
2:11 AM,39.2,39.2,100,30.23,10.0,Calm,Calm,-,N/A,,Clear,0,2013-09-05 07:11:00
2:36 AM,39.2,39.2,100,30.24,10.0,Calm,Calm,-,N/A,,Clear,0,2013-09-05 07:36:00
2:56 AM,39.2,37.4,93,30.25,10.0,Calm,Calm,-,N/A,,Clear,0,2013-09-05 07:56:00
3:17 AM,39.2,37.4,93,30.25,10.0,Calm,Calm,-,N/A,,Clear,0,2013-09-05 08:17:00
3:36 AM,37.4,37.4,100,30.25,10.0,Calm,Calm,-,N/A,,Clear,0,2013-09-05 08:36:00
3:56 AM,37.4,37.4,100,30.26,10.0,Calm,Calm,-,N/A,,Clear,0,2013-09-05 08:56:00
4:17 AM,37.4,37.4,100,30.26,10.0,Calm,Calm,-,N/A,,Clear,0,2013-09-05 09:17:00
4:36 AM,37.4,37.4,100,30.26,10.0,Calm,Calm,-,N/A,,Clear,0,2013-09-05 09:36:00
4:56 AM,37.4,35.6,93,30.25,10.0,Calm,Calm,-,N/A,,Clear,0,2013-09-05 09:56:00
5:17 AM,37.4,35.6,93,30.25,10.0,Calm,Calm,-,N/A,,Clear,0,2013-09-05 10:17:00
5:36 AM,37.4,35.6,93,30.25,10.0,Calm,Calm,-,N/A,,Clear,0,2013-09-05 10:36:00
5:56 AM,35.6,35.6,100,30.26,10.0,Calm,Calm,-,N/A,,Clear,0,2013-09-05 10:56:00
6:17 AM,35.6,35.6,100,30.27,10.0,Calm,Calm,-,N/A,,Clear,0,2013-09-05 11:17:00
6:36 AM,35.6,35.6,100,30.28,10.0,Calm,Calm,-,N/A,,Clear,0,2013-09-05 11:36:00
6:57 AM,35.6,33.8,93,30.28,10.0,Calm,Calm,-,N/A,,Clear,0,2013-09-05 11:57:00
7:16 AM,35.6,35.6,100,30.29,10.0,Calm,Calm,-,N/A,,Clear,0,2013-09-05 12:16:00
7:36 AM,37.4,35.6,93,30.29,10.0,Calm,Calm,-,N/A,,Clear,0,2013-09-05 12:36:00
7:56 AM,39.2,39.2,100,30.28,10.0,Calm,Calm,-,N/A,,Clear,0,2013-09-05 12:56:00
8:16 AM,44.6,42.8,93,30.28,10.0,Calm,Calm,-,N/A,,Clear,0,2013-09-05 13:16:00
8:37 AM,48.2,44.6,87,30.27,10.0,Calm,Calm,-,N/A,,Clear,0,2013-09-05 13:37:00
8:56 AM,53.6,46.4,77,30.27,10.0,Calm,Calm,-,N/A,,Clear,0,2013-09-05 13:56:00
9:16 AM,57.2,48.2,72,30.27,10.0,SE,3.5,-,N/A,,Clear,140,2013-09-05 14:16:00
9:37 AM,59.0,44.6,59,30.27,10.0,SE,4.6,-,N/A,,Clear,140,2013-09-05 14:37:00
9:56 AM,60.8,46.4,59,30.26,10.0,SSE,4.6,-,N/A,,Clear,160,2013-09-05 14:56:00
10:16 AM,62.6,46.4,55,30.27,10.0,SSE,4.6,-,N/A,,Clear,150,2013-09-05 15:16:00
10:37 AM,64.4,44.6,49,30.26,10.0,SSE,6.9,-,N/A,,Clear,150,2013-09-05 15:37:00
10:56 AM,64.4,46.4,52,30.26,10.0,South,6.9,-,N/A,,Clear,180,2013-09-05 15:56:00
11:16 AM,66.2,44.6,46,30.26,10.0,SSE,6.9,-,N/A,,Clear,150,2013-09-05 16:16:00
11:37 AM,66.2,44.6,46,30.26,10.0,SE,5.8,-,N/A,,Clear,140,2013-09-05 16:37:00
11:56 AM,68.0,44.6,43,30.26,10.0,SSW,6.9,-,N/A,,Clear,200,2013-09-05 16:56:00
12:16 PM,69.8,42.8,38,30.25,10.0,SSE,6.9,-,N/A,,Clear,160,2013-09-05 17:16:00
12:37 PM,69.8,41.0,35,30.24,10.0,SSW,8.1,-,N/A,,Clear,200,2013-09-05 17:37:00
12:56 PM,69.8,42.8,38,30.24,10.0,South,6.9,-,N/A,,Clear,190,2013-09-05 17:56:00
1:16 PM,71.6,42.8,35,30.23,10.0,South,3.5,-,N/A,,Clear,190,2013-09-05 18:16:00
1:36 PM,71.6,42.8,35,30.22,10.0,SW,6.9,-,N/A,,Clear,220,2013-09-05 18:36:00
1:57 PM,71.6,42.8,35,30.22,10.0,SSW,5.8,-,N/A,,Clear,200,2013-09-05 18:57:00
2:16 PM,73.4,44.6,36,30.21,10.0,SE,6.9,-,N/A,,Clear,140,2013-09-05 19:16:00
2:36 PM,73.4,42.8,33,30.20,10.0,South,4.6,-,N/A,,Clear,180,2013-09-05 19:36:00
2:57 PM,75.2,42.8,31,30.19,10.0,South,5.8,-,N/A,,Clear,190,2013-09-05 19:57:00
3:16 PM,75.2,44.6,34,30.19,10.0,South,4.6,-,N/A,,Clear,180,2013-09-05 20:16:00
3:36 PM,75.2,44.6,34,30.18,10.0,SSW,5.8,-,N/A,,Clear,200,2013-09-05 20:36:00
3:57 PM,75.2,44.6,34,30.18,10.0,Calm,Calm,-,N/A,,Clear,0,2013-09-05 20:57:00
4:16 PM,75.2,46.4,36,30.17,10.0,SE,4.6,-,N/A,,Clear,140,2013-09-05 21:16:00
4:36 PM,75.2,48.2,38,30.17,10.0,South,5.8,-,N/A,,Clear,180,2013-09-05 21:36:00
4:57 PM,73.4,51.8,47,30.16,10.0,South,5.8,-,N/A,,Clear,170,2013-09-05 21:57:00
5:16 PM,75.2,51.8,44,30.15,10.0,SSE,4.6,-,N/A,,Clear,150,2013-09-05 22:16:00
5:36 PM,75.2,53.6,47,30.15,10.0,South,4.6,-,N/A,,Clear,180,2013-09-05 22:36:00
5:56 PM,75.2,53.6,47,30.15,10.0,South,6.9,-,N/A,,Clear,190,2013-09-05 22:56:00
6:16 PM,73.4,53.6,50,30.14,10.0,South,4.6,-,N/A,,Clear,170,2013-09-05 23:16:00
6:37 PM,73.4,53.6,50,30.14,10.0,SSE,4.6,-,N/A,,Clear,160,2013-09-05 23:37:00
6:57 PM,71.6,55.4,57,30.13,10.0,South,5.8,-,N/A,,Clear,170,2013-09-05 23:57:00
7:16 PM,69.8,53.6,56,30.13,10.0,South,3.5,-,N/A,,Clear,170,2013-09-06 00:16:00
7:37 PM,66.2,55.4,68,30.12,10.0,SSE,3.5,-,N/A,,Clear,150,2013-09-06 00:37:00
7:56 PM,66.2,53.6,64,30.12,10.0,Calm,Calm,-,N/A,,Clear,0,2013-09-06 00:56:00
8:16 PM,64.4,53.6,68,30.12,10.0,Calm,Calm,-,N/A,,Clear,0,2013-09-06 01:16:00
8:36 PM,64.4,53.6,68,30.12,10.0,Calm,Calm,-,N/A,,Clear,0,2013-09-06 01:36:00
8:56 PM,60.8,53.6,77,30.12,10.0,Calm,Calm,-,N/A,,Clear,0,2013-09-06 01:56:00
9:16 PM,59.0,53.6,82,30.13,10.0,Calm,Calm,-,N/A,,Clear,0,2013-09-06 02:16:00
9:37 PM,57.2,53.6,88,30.13,10.0,Calm,Calm,-,N/A,,Clear,0,2013-09-06 02:37:00
9:56 PM,59.0,51.8,77,30.12,10.0,Calm,Calm,-,N/A,,Clear,0,2013-09-06 02:56:00
10:16 PM,57.2,51.8,82,30.11,10.0,Calm,Calm,-,N/A,,Clear,0,2013-09-06 03:16:00
10:37 PM,60.8,51.8,72,30.11,10.0,Calm,Calm,-,N/A,,Clear,0,2013-09-06 03:37:00
10:55 PM,60.8,51.8,72,30.12,10.0,Calm,Calm,-,N/A,,Clear,0,2013-09-06 03:55:00
11:17 PM,60.8,51.8,72,30.11,10.0,South,3.5,-,N/A,,Clear,170,2013-09-06 04:17:00
11:36 PM,60.8,51.8,72,30.10,10.0,Calm,Calm,-,N/A,,Clear,0,2013-09-06 04:36:00
11:56 PM,60.8,51.8,72,30.10,10.0,SSE,3.5,-,N/A,,Clear,160,2013-09-06 04:56:00